King Cove, AK

11:32 AM AKST on December 10, 2016 (GMT -0900)
King Cove AP, King Cove, AK

Weather History for PAVC - December, 2013

Change the Weather History Date:

Thursday, December 19, 2013

  Actual Average (PACD) Record (PACD)
Temperature  
Mean Temperature 40 °F -  
Max Temperature 44 °F 35 °F 46 °F (2010)
Min Temperature 37 °F 27 °F 4 °F (1961)
Degree Days  
Heating Degree Days 24    
Moisture  
Dew Point 41 °F    
Average Humidity 97    
Maximum Humidity 100    
Minimum Humidity 93    
Precipitation  
Precipitation 0.49 in - - ()
Sea Level Pressure  
Sea Level Pressure 29.36 in    
Wind  
Wind Speed 3 mph (NE)    
Max Wind Speed 15 mph    
Max Gust Speed -    
Visibility 1 miles    
Events Fog , Rain , Snow    
Averages and records for this station are not official NWS values.
T = Trace of Precipitation, MM = Missing Value Source: NWS Daily Summary

Daily Weather History Graph

Daily Weather History Graph

Search for Another Location

Airport or City:

Trip Planner

Search our weather history database for the weather conditions in past years. The results will help you decide how hot, cold, wet, or windy it might be!

Date:

Astronomy

Dec. 19, 2013 Rise Set
Actual Time 10:12 AM AKST 5:20 PM AKST
Civil Twilight 9:26 AM AKST 6:06 PM AKST
Nautical Twilight 8:38 AM AKST 6:54 PM AKST
Astronomical Twilight 7:53 AM AKST 7:39 PM AKST
Moon 8:22 PM AKST (12/19) 11:15 AM AKST (12/19)
Length of Visible Light 8h 40m
Length of Day
7h 08m
Waning Gibbous, 95% of the Moon is Illuminated
Dec 19
Waning Gibbous
Dec 25
Last Quarter
Jan 1
New
Jan 7
First Quarter
Jan 15
Full

Hourly Weather History & Observations

Time (AKST) Temp. Windchill Dew Point Humidity Pressure Visibility Wind Dir Wind Speed Gust Speed Precip Events Conditions
12:07 AM 39.2 °F 33.6 °F 37.4 °F 93% 29.38 in 1.5 mi NE 8.1 mph - 0.00 in   Overcast
12:15 AM 39.2 °F 33.6 °F 37.4 °F 93% 29.38 in 3.0 mi NE 8.1 mph - 0.00 in   Overcast
12:31 AM 39.2 °F - 37.4 °F 93% 29.38 in 1.8 mi Calm Calm - 0.00 in   Overcast
12:35 AM 37.4 °F - 37.4 °F 100% 29.37 in 1.0 mi Calm Calm - 0.00 in Snow Light Snow
12:40 AM 37.4 °F - 37.4 °F 100% 29.37 in 0.5 mi Calm Calm - 0.00 in Fog , Snow Light Snow
12:56 AM 38.8 °F - 37.9 °F 97% 29.36 in 1.2 mi Calm Calm - 0.00 in   Overcast
12:59 AM 39.2 °F 34.2 °F 37.4 °F 93% 29.35 in 0.8 mi ENE 6.9 mph - N/A   Overcast
1:12 AM 37.4 °F - 37.4 °F 100% 29.37 in 0.2 mi Calm Calm - 0.00 in Fog Fog
1:27 AM 39.2 °F - 37.4 °F 93% 29.37 in 0.8 mi Calm Calm - 0.00 in   Overcast
1:32 AM 39.2 °F - 37.4 °F 93% 29.38 in 1.2 mi Calm Calm - 0.00 in   Overcast
1:37 AM 39.2 °F - 37.4 °F 93% 29.38 in 2.0 mi Calm Calm - 0.00 in   Overcast
1:43 AM 39.2 °F - 37.4 °F 93% 29.38 in 1.2 mi Calm Calm - 0.00 in   Overcast
1:56 AM 38.8 °F - 37.9 °F 97% 29.39 in 1.0 mi Calm Calm - 0.01 in   Overcast
2:12 AM 37.4 °F - 37.4 °F 100% 29.38 in 0.8 mi Calm Calm - 0.00 in Snow Light Snow
2:22 AM 39.2 °F - 37.4 °F 93% 29.37 in 1.2 mi Calm Calm - 0.00 in   Overcast
2:36 AM 39.2 °F - 39.2 °F 100% 29.36 in 2.0 mi Calm Calm - 0.00 in   Overcast
3:00 AM 39.2 °F 35.0 °F 39.2 °F 100% 29.36 in 1.0 mi East 5.8 mph - N/A   Overcast
3:05 AM 39.2 °F - 37.4 °F 93% 29.35 in 0.8 mi Calm Calm - N/A   Overcast
3:18 AM 37.4 °F - 37.4 °F 100% 29.34 in 0.5 mi Calm Calm - 0.01 in Fog , Snow Light Snow
3:35 AM 37.4 °F - 37.4 °F 100% 29.34 in 0.8 mi Calm Calm - 0.01 in Snow Light Snow
3:56 AM 38.8 °F 33.2 °F 38.8 °F 100% 29.36 in 1.2 mi NE 8.1 mph - 0.02 in   Overcast
4:05 AM 39.2 °F - 39.2 °F 100% 29.36 in 1.0 mi Calm Calm - 0.00 in   Overcast
4:28 AM 39.2 °F - 39.2 °F 100% 29.37 in 1.2 mi Calm Calm - 0.02 in   Overcast
4:56 AM 41.0 °F - 39.9 °F 96% 29.36 in 1.2 mi Calm Calm - 0.07 in   Overcast
5:32 AM 41.0 °F - 39.2 °F 93% 29.35 in 1.0 mi Calm Calm - 0.04 in   Overcast
5:56 AM 41.0 °F - 41.0 °F 100% 29.34 in 1.5 mi Calm Calm - N/A   Overcast
6:00 AM 42.8 °F - 41.0 °F 93% 29.34 in 1.2 mi Calm Calm - N/A   Overcast
6:24 AM 41.0 °F - 39.2 °F 93% 29.34 in 1.0 mi Calm Calm - 0.03 in   Overcast
6:56 AM 41.0 °F - 41.0 °F 100% 29.33 in 1.0 mi Calm Calm - 0.08 in   Overcast
7:18 AM 42.8 °F - 41.0 °F 93% 29.32 in 1.2 mi Calm Calm - 0.03 in   Overcast
7:36 AM 42.8 °F 38.0 °F 42.8 °F 100% 29.32 in 1.5 mi NNE 8.1 mph - 0.04 in   Overcast
7:56 AM 41.9 °F - 41.0 °F 97% 29.34 in 1.2 mi Calm Calm - 0.05 in   Overcast
8:02 AM 41.0 °F - 39.2 °F 93% 29.33 in 1.0 mi Calm Calm - N/A   Overcast
8:56 AM 41.0 °F - 41.0 °F 100% 29.34 in 0.8 mi Calm Calm - 0.06 in   Overcast
9:19 AM 42.8 °F - 42.8 °F 100% 29.33 in 1.2 mi Calm Calm - N/A   Overcast
9:38 AM 42.8 °F - 42.8 °F 100% 29.35 in 1.0 mi Calm Calm - 0.01 in   Overcast
9:56 AM 43.0 °F - 43.0 °F 100% 29.35 in 1.2 mi Calm Calm - 0.02 in   Overcast
10:00 AM 42.8 °F - 42.8 °F 100% 29.35 in 1.5 mi Calm Calm - N/A   Overcast
10:06 AM 44.6 °F - 42.8 °F 93% 29.34 in 3.0 mi Calm Calm - N/A   Overcast
10:11 AM 44.6 °F - 42.8 °F 93% 29.34 in 1.8 mi Calm Calm - 0.00 in Rain Light Rain
10:14 AM 44.6 °F - 42.8 °F 93% 29.34 in 1.0 mi Calm Calm - 0.01 in Rain Light Rain
10:26 AM 42.8 °F - 42.8 °F 100% 29.34 in 0.5 mi Calm Calm - 0.02 in Fog , Rain Light Rain
10:56 AM 41.9 °F 37.5 °F 41.0 °F 97% 29.36 in 0.2 mi East 6.9 mph - 0.03 in Fog Fog
11:11 AM 42.8 °F - 41.0 °F 93% 29.35 in 0.2 mi Calm Calm - 0.01 in Fog Fog
11:26 AM 41.0 °F - 41.0 °F 100% 29.35 in 0.2 mi Calm Calm - 0.01 in Fog Fog
11:56 AM 41.9 °F - 41.0 °F 97% 29.36 in 0.2 mi Calm Calm - 0.02 in Fog Fog
12:16 PM 42.8 °F - 42.8 °F 100% 29.36 in 0.5 mi Calm Calm - 0.01 in Fog , Rain Light Rain
12:30 PM 42.8 °F - 41.0 °F 93% 29.36 in 0.5 mi Calm Calm - 0.01 in Fog , Rain Light Rain
12:56 PM 41.9 °F - 41.0 °F 97% 29.37 in 0.8 mi Calm Calm - 0.02 in   Overcast
1:09 PM 42.8 °F 38.0 °F 42.8 °F 100% 29.36 in 0.5 mi WSW 8.1 mph - N/A Fog Fog
1:20 PM 42.8 °F 37.5 °F 42.8 °F 100% 29.36 in 0.8 mi WSW 9.2 mph - N/A   Overcast
1:34 PM 42.8 °F 37.0 °F 42.8 °F 100% 29.36 in 0.5 mi WSW 10.4 mph - 0.00 in Fog , Rain Light Rain
1:56 PM 43.9 °F 36.8 °F 43.0 °F 97% 29.37 in 0.5 mi SW 15.0 mph - 0.00 in Fog , Rain Light Rain
2:21 PM 44.6 °F 40.2 °F 42.8 °F 93% 29.35 in 1.0 mi WSW 8.1 mph - 0.00 in Rain Light Rain
2:44 PM 44.6 °F 43.1 °F 42.8 °F 93% 29.36 in 1.2 mi SW 3.5 mph - 0.00 in   Overcast
2:56 PM 44.6 °F 39.7 °F 42.8 °F 93% 29.35 in 1.0 mi WSW 9.2 mph - N/A Rain Light Rain
3:29 PM 44.6 °F 38.8 °F 44.6 °F 100% 29.36 in 0.8 mi West 11.5 mph - 0.00 in Rain Light Rain
3:39 PM 44.6 °F - 42.8 °F 93% 29.36 in 1.0 mi Calm Calm - 0.00 in   Overcast
3:42 PM 44.6 °F - 42.8 °F 93% 29.36 in 0.5 mi Calm Calm - 0.00 in Fog Fog
3:56 PM 43.0 °F - 41.9 °F 96% 29.37 in 0.2 mi Calm Calm - 0.00 in Fog Fog
4:56 PM 41.9 °F - 41.0 °F 97% 29.37 in 0.2 mi Calm Calm - 0.00 in Fog Fog
5:10 PM 41.0 °F - 41.0 °F 100% 29.36 in 0.2 mi Calm Calm - 0.01 in Fog , Rain Light Rain
5:56 PM 41.0 °F 34.3 °F 41.0 °F 100% 29.35 in 0.5 mi NE 11.5 mph - N/A Fog , Rain Light Rain
6:02 PM 42.8 °F 36.6 °F 41.0 °F 93% 29.35 in 1.0 mi ENE 11.5 mph - 0.00 in   Overcast
6:04 PM 42.8 °F 36.6 °F 41.0 °F 93% 29.35 in 2.0 mi ENE 11.5 mph - 0.00 in   Overcast
6:11 PM 42.8 °F 37.0 °F 41.0 °F 93% 29.35 in 1.0 mi ENE 10.4 mph - 0.01 in   Overcast
6:25 PM 42.8 °F 38.6 °F 42.8 °F 100% 29.36 in 1.5 mi ENE 6.9 mph - 0.01 in   Overcast
6:41 PM 42.8 °F - 42.8 °F 100% 29.36 in 1.0 mi Calm Calm - 0.02 in Rain Light Rain
6:56 PM 41.9 °F - 41.9 °F 100% 29.37 in 0.5 mi Calm Calm - 0.03 in Fog , Rain Light Rain
7:15 PM 42.8 °F 37.0 °F 42.8 °F 100% 29.36 in 1.0 mi NNE 10.4 mph - 0.00 in Rain Light Rain
7:19 PM 42.8 °F 37.0 °F 42.8 °F 100% 29.36 in 1.5 mi NE 10.4 mph - 0.00 in   Overcast
7:56 PM 43.0 °F 37.2 °F 41.9 °F 96% 29.35 in 0.8 mi NE 10.4 mph - 0.01 in Rain Light Rain
8:09 PM 42.8 °F 37.5 °F 42.8 °F 100% 29.36 in 0.5 mi NE 9.2 mph - 0.00 in Fog , Rain Light Rain
8:23 PM 42.8 °F 41.1 °F 42.8 °F 100% 29.36 in 1.0 mi NE 3.5 mph - 0.01 in Rain Light Rain
8:56 PM 42.8 °F 40.1 °F 42.8 °F 100% 29.36 in 1.2 mi NE 4.6 mph - N/A Rain Light Rain
9:56 PM 41.9 °F 37.5 °F 41.0 °F 97% 29.36 in 1.0 mi NE 6.9 mph - 0.01 in Rain Light Rain
10:15 PM 42.8 °F 37.0 °F 41.0 °F 93% 29.35 in 1.5 mi NE 10.4 mph - 0.02 in Rain Light Rain
10:27 PM 42.8 °F 37.0 °F 41.0 °F 93% 29.36 in 1.0 mi ENE 10.4 mph - 0.04 in Rain Light Rain
10:43 PM 42.8 °F 38.0 °F 42.8 °F 100% 29.35 in 1.5 mi NE 8.1 mph - 0.06 in Rain Light Rain
10:56 PM 43.0 °F 37.2 °F 41.9 °F 96% 29.36 in 2.0 mi ENE 10.4 mph - 0.06 in Rain Light Rain
11:34 PM 42.8 °F 36.6 °F 42.8 °F 100% 29.34 in 1.2 mi NE 11.5 mph - 0.01 in Rain Light Rain
11:56 PM 42.8 °F - 42.8 °F 100% 29.34 in 1.5 mi Calm Calm - N/A Rain Light Rain